Regional Weather Roundup
Issued by NWS

Home | Current Version | Previous Version | Graphics & Text | Print | Product List | Glossary On
Versions: 1 2 3 4 5 6 7 8 9 10 11 12 13 14 15 16 17 18 19 20 21 22 23 24 25 26 27 28 29 30 31 32 33 34 35 36 37 38 39 40 41 42 43 44 45 46 47 48 49 50
000
ASUS43 KLOT 220604
RWRIL

ILLINOIS REGIONAL WEATHER ROUNDUP
NATIONAL WEATHER SERVICE CHICAGO/ROMEOVILLE IL
100 AM CDT MON MAY 22 2017

NOTE: "FAIR" INDICATES FEW OR NO CLOUDS BELOW 12,000 FEET WITH NO
SIGNIFICANT WEATHER AND/OR OBSTRUCTIONS TO VISIBILITY.

* THESE STATIONS ARE NOT UNDER NWS QUALITY CONTROL. THEY ALSO MAY NOT
  REPORT WEATHER SUCH AS PRECIPITATION OR FOG.

ILZ001-002-007-009-015-016-024-220700-
NORTHWEST ILLINOIS

CITY           SKY/WX    TMP DP  RH WIND       PRES   REMARKS
MOLINE         CLEAR     50  41  71 SW8       30.04F
6HR MIN TEMP:  50; 6HR MAX TEMP:  54;

STERLING*      CLEAR     49  43  80 W12       30.03F
$$

ILZ003-004-008-010-011-017-018-220700-
NORTH CENTRAL ILLINOIS

CITY           SKY/WX    TMP DP  RH WIND       PRES   REMARKS
ROCKFORD       CLOUDY    51  42  71 W10G21    30.02S
6HR MIN TEMP:  50; 6HR MAX TEMP:  51;

FREEPORT*      CLOUDY    47  42  82 W8        30.01F
ROCHELLE*      CLOUDY    49  43  80 W10       30.02F
DE KALB*       CLOUDY    49  43  78 W14       30.02S
$$

ILZ005-006-012>014-019>023-220700-
NORTHEAST ILLINOIS

CITY           SKY/WX    TMP DP  RH WIND       PRES   REMARKS
CHICAGO-OHARE  CLOUDY    51  41  68 W9G23     30.00F
6HR MIN TEMP:  51; 6HR MAX TEMP:  53;

CHICAGO-MIDWAY CLOUDY    52  42  69 W14       30.01F
6HR MIN TEMP:  52; 6HR MAX TEMP:  53;

AURORA         CLOUDY    51  44  77 SW12      30.02F
6HR MIN TEMP:  51; 6HR MAX TEMP:  52;

LANSING*       CLOUDY    51  45  78 W9        30.03F
WAUKEGAN       CLOUDY    50  42  74 SW7G17    29.97F
6HR MIN TEMP:  50; 6HR MAX TEMP:  52;

DUPAGE AIRPORT CLOUDY    50  44  80 SW12      30.00F
6HR MIN TEMP:  50; 6HR MAX TEMP:  51;

WHEELING       CLOUDY    51  43  74 SW10G22   30.01F
6HR MIN TEMP:  51; 6HR MAX TEMP:  52;

MORRIS*        CLOUDY    51  45  78 CALM      30.03F
NORTHERLY ISL    N/A     52  40  63 SW7         N/A
$$

LMZ740>746-220700-
SOUTHERN LAKE MICHIGAN

STATION/POSITION SKY/WX   TEMP    WIND        PRES    VSBY  WAVE
                          AIR SEA DIR/SP/G                  HT/PER
                          (F)     (DEG/KT/KT) (MB)    (MI)  (FT/S)
SOUTHERN BUOY              47 44  240/ 12/ 16 1015.5          2/ 4
WILMETTE HARBOR            51 53                N/A           2/ 2
HARRISON CRIB              53     240/ 13/ 17   N/A
BURNHAM HARBOR             52     230/  9/ 13   N/A
CALUMET HARBOR             52     230/  5/ 10 1016.2F
BURNS HARBOR               53     230/ 10/ 17 1017.6S
MICHIGAN CITY              52     210/ 14/ 16   N/A
MICHIGAN CITY 6N           52 53  240/ 16/ 19   N/A           3/ 4
ST. JOSEPH                 52 55  250/ 17/ 23 1016.9F         4/ 4
$$

ILZ025>027-034>036-040-047-049-050-058-095>099-220700-
WEST-CENTRAL ILLINOIS

CITY           SKY/WX    TMP DP  RH WIND       PRES   REMARKS
QUINCY         CLEAR     49  48  97 CALM      30.11R
MACOMB*        CLEAR     49  47  92 SW5       30.11F
$$

ILZ028>032-037-038-041>044-048-051>054-059>061-220700-
CENTRAL ILLINOIS

CITY           SKY/WX    TMP DP  RH WIND       PRES   REMARKS
BLOOMINGTON    CLOUDY    49  46  90 SW6       30.10S
DECATUR        CLEAR     51  47  86 SW6       30.11S
PEORIA         CLEAR     48  45  89 SW3       30.08F
6HR MIN TEMP:  48; 6HR MAX TEMP:  55;

LACON*         CLEAR     50  45  80 SW7       30.06S
LINCOLN*       PTCLDY    52  49  90 CALM      30.10S
SPRINGFIELD    PTCLDY    53  50  89 CALM      30.12R
6HR MIN TEMP:  52; 6HR MAX TEMP:  59;

TAYLORVILLE    NOT AVBL
$$

ILZ033-039-045-046-055>057-062-063-220700-
EAST-CENTRAL ILLINOIS

CITY           SKY/WX    TMP DP  RH WIND       PRES   REMARKS
CHAMPAIGN      CLEAR     50  46  86 SW8       30.10S
MATTOON        PTCLDY    51  49  92 SW3       30.11S
$$

ILZ079-100>102-220700-
SOUTHWEST ILLINOIS

CITY           SKY/WX    TMP DP  RH WIND       PRES   REMARKS
BELLEVILLE     CLEAR     54  50  87 W3        30.14S
CAHOKIA*       CLEAR     54  48  80 CALM      30.14R
SPARTA*        CLOUDY    56  49  74 CALM      30.14F
$$

ILZ064>066-069>071-074>076-080>082-084>086-088>090-092>094-220700-
SOUTH-CENTRAL ILLINOIS

CITY           SKY/WX    TMP DP  RH WIND       PRES   REMARKS
CARBONDALE     MOCLDY    56  53  90 CALM      30.14S
6HR MIN TEMP:  56; 6HR MAX TEMP:  70;

CAIRO*         PTCLDY    60  50  69 N7        30.13S
EFFINGHAM*     CLEAR     51  51 100 CALM      30.14S
MARION         CLOUDY    59  54  82 CALM      30.15S
MT. VERNON       N/A     51  50  96 CALM      30.14S
CENTRALIA*     CLOUDY    55  54  97 CALM      30.13R
SALEM*         PTCLDY    55  51  87 CALM      30.13S
$$

ILZ067-068-072-073-078-083-087-091-220700-
SOUTHEAST ILLINOIS

CITY           SKY/WX    TMP DP  RH WIND       PRES   REMARKS
LAWRENCEVILLE  CLOUDY    57  48  72 CALM      30.12F
FLORA*         PTCLDY    55  52  91 CALM      30.13S
FAIRFIELD*     MOCLDY    56  51  85 CALM      30.13S
HARRISBURG*    CLOUDY    58  51  75 CALM      30.14S
ROBINSON*      CLOUDY    51  49  93 CALM      30.13F
CARMI*         PTCLDY    58  51  78 N6        30.13S
$$

ABBREVIATIONS USED IN REMARKS
   TC - TEMPERATURE IN CELSIUS
  WCI - WIND CHILL INDEX
   HX - HEAT INDEX
  VSB - VISIBILITY
$$





USA.gov is the U.S. government's official web portal to all federal, state and local government web resources and services.